Regional Weather Roundup
Issued by NWS Wakefield, VA

Home | Current Version | Previous Version | Graphics & Text | Print | Product List | Glossary On
Versions: 1 2 3 4 5 6 7 8 9 10 11 12 13 14 15 16 17 18 19 20 21 22 23 24 25 26 27 28 29 30 31 32 33 34 35 36 37 38 39 40 41 42 43 44 45 46 47 48 49 50
000
ASUS41 KAKQ 180514
RWRAKQ

REGIONAL WEATHER ROUNDUP
NATIONAL WEATHER SERVICE WAKEFIELD VA
1200 AM EST SAT NOV 18 2017

Note: "fair" indicates few or no clouds below 12,000 feet with no
significant weather and/or obstructions to visibility. * = Denotes
station may not report precipitation (e.g., rain,snow,etc.),
thunder or fog.

VAZ042-051-052>054-056-180600-
NORTHERN VIRGINIA

CITY           SKY/WX    TMP DP  RH WIND       PRES   REMARKS
WASH NATIONAL  MOCLDY    41  33  73 S5        30.11F
DULLES         PTCLDY    32  29  88 SE3       30.09F
FORT BELVOIR   CLOUDY    31  29  91 CALM      30.10F
QUANTICO       NOT AVBL
FREDERICKSBRG* PTCLDY    32  31  99 CALM      30.11F
STAFFORD*      PTCLDY    29  29 100 CALM      30.15F
WARRENTON      NOT AVBL
CULPEPER*      CLOUDY    30  27  90 CALM      30.10F
MANASSAS*      PTCLDY    28  25  88 CALM      30.10F
LEESBURG*      PTCLDY    34  32  93 S3        30.09F
WINCHESTER     CLOUDY    34  28  80 SW5       30.05F
FRONT ROYAL*   CLOUDY    34  28  80 S3        30.05F
LURAY*         CLOUDY    30  30 100 CALM      30.06F
$$

VAZ048-049-060>072-079>083-180600-
CENTRAL AND SOUTH CENTRAL VIRGINIA

CITY           SKY/WX    TMP DP  RH WIND       PRES   REMARKS
RICHMOND       CLOUDY    33  29  85 SE3       30.13F
CHESTERFIELD*  NOT AVBL
PETERSBURG*    CLOUDY   N/A N/A N/A CALM      30.14F
HANOVER        CLOUDY    32  31  96 CALM      30.13F
TAPPAHANNOCK*    N/A    N/A N/A N/A MISG        N/A
QUINTON*       FAIR      31  31 100 S7        30.13F
CHARLOTTSVILLE CLOUDY    34  27  75 CALM      30.07F
GORDONSVILLE*  CLOUDY    30  29  95 SW3       30.09F
ORANGE*        CLOUDY    30  28  93 CALM      30.09F
LOUISA*          N/A     28  26  93 CALM        N/A
BUMPASS*       FAIR      32  29  88 CALM      30.10F
FARMVILLE*     CLEAR     29  29 100 CALM      30.10F
CREWE*         FAIR      30  30 100 CALM      30.12F
FORT PICKETT*  NOT AVBL
CHASE CITY*    FAIR      32  32 100 CALM      30.12F
CLARKSVILLE*   FAIR      32  32 100 CALM      30.12F
SOUTH HILL*    CLEAR     29  29  99 CALM      30.18F
LAWRENCEVILLE* FAIR      35  33  94 CALM      30.13F
EMPORIA*       CLEAR     30  28  93 CALM      30.15F
$$

VAZ088>098-180600-
SOUTHEAST VIRGINIA

CITY           SKY/WX    TMP DP  RH WIND       PRES   REMARKS
NORFOLK        CLEAR     36  34  92 SW6       30.15S
VIRGINIA BEACH NOT AVBL
NORFOLK NAVAL  PTCLDY    36  34  92 SW6       30.16F
WEST POINT*    CLOUDY    29  28  96 CALM      30.16S
SALUDA*        FAIR      33  32  98 SW3       30.14S
NEWPORT NEWS   CLEAR     34  31  88 SW3       30.15S
LANGLEY AFB    CLEAR     35  32  91 SW7       30.14F
FORT EUSTIS    CLEAR     36  35  94 CALM      30.13R
WILLIAMSBURG*  CLEAR     37  36  93 CALM      30.16S
HR EXEC AP*    NOT AVBL
FRANKLIN*      CLEAR     30  28  92 CALM      30.16F
US460-WAKEFLD  CLEAR     31  30  96 CALM      30.15S
$$

VAZ020-022-025-037-045-180600-
WEST CENTRAL AND SOUTHWEST VIRGINIA

CITY           SKY/WX    TMP DP  RH WIND       PRES   REMARKS
STAUNTON*      CLOUDY    29  24  82 W3        30.08F
WAYNESBORO*    CLEAR     32  24  73 CALM      30.06F
HOT SPRINGS VA CLOUDY    39  19  44 S9        30.03F
LYNCHBURG      CLOUDY    38  27  64 SW3       30.10F
DANVILLE       CLOUDY    30  29  96 CALM      30.12F
SOUTH BOSTON*  FAIR      30  29  95 CALM      30.12F
MARTINSVILLE   PTCLDY    29  27  92 CALM      30.13F
ROANOKE        PTCLDY    36  28  73 CALM      30.10F
BLACKSBURG     CLEAR     36  28  73 CALM      30.09F
DUBLIN*        PTCLDY    39  28  63 CALM      30.08S
MARION*        PTCLDY    42  24  49 E3        30.06F
HILLSVILLE*    PTCLDY    43  26  51 S8        30.05S
RICHLANDS*     FAIR      49  -2  12 SE6       29.99F
WISE*          CLOUDY    50  32  50 S7        30.01S
ABINGDON*      PTCLDY    46  32  57 CALM      30.02S
$$

MDZ021>025-VAZ099-100-180600-
SOUTHERN MARYLAND AND THE DELMARVA PENINSULA

CITY           SKY/WX    TMP DP  RH WIND       PRES   REMARKS
PATUXENT RIVER NOT AVBL
BAY BRIDGE APT CLOUDY    37  36  93 CALM      30.11R
LEONARDTOWN    CLOUDY    34  32  93 CALM      30.13S
DOVER          MOCLDY    33  33 100 SW3       30.09F
GEORGETOWN     CLOUDY    31  27  85 CALM      30.10F
EASTON         CLOUDY    35  31  85 CALM      30.14S
CAMBRIDGE      NOT AVBL
SALISBURY      CLOUDY    30  28  92 CALM      30.10F
OCEAN CITY     CLEAR     30  29  96 CALM      30.11F
WALLOPS ISLAND PTCLDY    34  32  92 CALM      30.12F
ACCOMACK*      CLEAR     34  33  96 S5        30.12F
$$

NCZ012>017-030>032-180600-
NORTH CENTRAL AND EASTERN NORTH CAROLINA

CITY           SKY/WX    TMP DP  RH WIND       PRES   REMARKS
ROANOKE RAPIDS FAIR      32  32 100 CALM      30.15F
RALEIGH        CLEAR     36  33  89 CALM      30.14F
ELIZABETH CITY CLEAR     34  34 100 CALM      30.17S
AHOSKIE*       CLEAR     30  30 100 CALM      30.16F
EDENTON*       CLEAR     35  33  93 CALM      30.18R
CURRITUCK*     CLEAR     35  35  99 CALM      30.17S
KILL DEVIL HLS CLEAR     43  34  70 CALM      30.15R
MANTEO         CLEAR     36  35  96 CALM      30.17R
CAPE HATTERAS  CLEAR     40  39  97 N3        30.16S
TARBORO*       NOT AVBL
GOLDSBORO      CLEAR     34  31  89 CALM      30.14F
WASHINGTON     NOT AVBL
GREENVILLE     CLEAR     34  34 100 CALM      30.17F FOG
NEW BERN       CLEAR     34  34 100 CALM      30.18S
WILMINGTON     CLEAR     38  37  97 CALM      30.17S
$$

VAZ048-180600-
ELSEWHERE

CITY           SKY/WX    TMP DP  RH WIND       PRES   REMARKS
HARRISBURG PA  MOCLDY    35  29  78 E3        30.06F
BALTIMORE      CLOUDY    33  30  88 W3        30.09F
ANNAPOLIS      NOT AVBL
ANDREWS AFB    PTCLDY    35  28  75 S7        30.08F
PHILADELPHIA   CLOUDY    37  29  72 SW5       30.09F
HENDERSON NC   CLEAR     33  29  85 CALM      30.12F
GREENSBORO     PTCLDY    39  32  76 SW6       30.10F
ROCKY MOUNT    CLEAR     32  32 100 CALM      30.15F
$$

VAZ100-180600-
MARINE

STATION/POSITION TIME  TEMP    WIND        PRES    WAVE   SWELL
                       AIR SEA DIR/SP/G            HT/PER HT/PER
                 (UTC) (F)     (DEG/KT/KT) (MB)    (FT/S) (FT/S)
15NM E FENWICK I 0450   51 59  310/  6/ 10 1020.0S   2/11   2/11
THOMAS POINT MD  0500   46 53  240/  5/  6   N/A
CAPE HENRY BUOY  0500      60                N/A     2/13   2/13
CAPE CHARLES BUO 0451      58                N/A     2/13   2/13
64NM E OF VA BCH 0450   53 60  290/  2/  4 1021.3S   4/12   3/12
44100 DUCK FRF   0445      62                N/A     3/13   2/13
44056 DUCK FRF   0500      58                N/A     3/11   2/11
DIAMOND SHLS NC  0500   55 64   20/  6/ 10 1021.4
CAPE LOOKOUT NC  0500   52     350/  6/  6 1021.7R
$$



USA.gov is the U.S. government's official web portal to all federal, state and local government web resources and services.